ABS-2A (MONGOLSAT-1) (41588 NORAD) Tracking and Keplerian Element Data

This shows tracking and keplerian element data for the satellite.

Feedback or suggestion? Click here.




ElementValue
Catalog41588
NameABS-2A (MONGOLSAT-1)
Epoch Orbit1200
Epoch Day262.07513046
Epoch Year2019
RAAN163.1713
Inclination0.008
Eccentricity0.0002136
Argument of Perigee286.2684
Mean Anonmoly10.0328
Mean Motion1.00271135
Decay Rate-8.7E-07
L11 41588U 16038A 19262.07513046 -.00000087 00000-0 00000+0 0 9995
L22 41588 0.0080 163.1713 0002136 286.2684 10.0328 1.00271135 12003

Live tracking and technical data element details for ABS-2A (MONGOLSAT-1) (NORAD 41588). ABS-2A (MONGOLSAT-1) can be tracked NOW for your location showing map with azimuth and elevation plus other details from your city location.

Track the satellite on the map from your city or location and see movement details for azimuth, elevation, latitude, longitude, range, height, and movement on the map or in text.







IsCatalogInMostPopularTable: catalog: 41588, numindb: 326
Update: records affected: 1



GetName: 41588 ABS-2A (MONGOLSAT-1)

Hit Count: updated at: Thu, 19 Sep 2019 17:46:50 GMT